Tracking 28096 objects as of 28-Sep-2023
HD Live streaming from Space Station
objects crossing your sky now

STARLINK-1174

Track STARLINK-1174 now!
10-day predictions
STARLINK-1174 is classified as:


NORAD ID: 45075
Int'l Code: 2020-006AH
Perigee: 553.5 km
Apogee: 555.4 km
Inclination: 53.1 °
Period: 95.6 minutes
Semi major axis: 6925 km
RCS: Unknown
Launch date: January 29, 2020
Source: United States (US)
Launch site: AIR FORCE EASTERN TEST RANGE (AFETR)
Your satellite tracking list
Your tracking list is empty




NASA's NSSDC Master Catalog

Two Line Element Set (TLE):
1 45075U 20006AH  23270.41498370  .00015911  00000-0  10854-2 0  9996
2 45075  53.0543 321.1757 0001378  77.1786 282.9357 15.06372858201952
Source of the keplerian elements: AFSPC